,,PA_Meas_PMT16A,,PR_Meas_QMR101_102,,RH_Meas_QMH101,,SR_Meas_QMS101,,TA_Meas_QMH101,,GenWind,,GenWind,
time,status,PA,status,PR,status,RH,status,SR,status,TA,status,DirAvg,status,SpdAvg,
2015-04-28, 07:29:04,VALID,917.848,VALID,0,VALID,98.891,VALID,67.3656,VALID,18.7474,VALID,130,VALID,0,
2015-04-28, 07:30:04,VALID,917.851,VALID,0,VALID,98.9062,VALID,68.3326,VALID,18.7474,VALID,146,VALID,0,
2015-04-28, 07:31:04,VALID,917.874,VALID,0,VALID,98.9138,VALID,69.2995,VALID,18.7864,VALID,146,VALID,0,
2015-04-28, 07:32:04,VALID,917.882,VALID,0,VALID,98.8986,VALID,70.2665,VALID,18.7864,VALID,146,VALID,0,
2015-04-28, 07:33:04,VALID,917.867,VALID,0,VALID,98.9138,VALID,71.4484,VALID,18.8463,VALID,146,VALID,0,
2015-04-28, 07:34:04,VALID,917.882,VALID,0,VALID,98.8986,VALID,72.6302,VALID,18.8463,VALID,146,VALID,0,
2015-04-28, 07:35:04,VALID,917.881,VALID,0,VALID,98.9291,VALID,73.8121,VALID,18.8449,VALID,140,VALID,0,
2015-04-28, 07:36:04,VALID,917.894,VALID,0,VALID,98.9214,VALID,75.1014,VALID,18.9034,VALID,135,VALID,0,
2015-04-28, 07:37:04,VALID,917.868,VALID,0,VALID,98.9138,VALID,76.2832,VALID,18.9229,VALID,133,VALID,0,
2015-04-28, 07:38:04,VALID,917.864,VALID,0,VALID,98.9443,VALID,77.4651,VALID,18.9619,VALID,133,VALID,0,
2015-04-28, 07:39:04,VALID,917.912,VALID,0,VALID,98.9138,VALID,78.432,VALID,19.0023,VALID,134,VALID,0,
2015-04-28, 07:40:04,VALID,917.944,VALID,0,VALID,98.9138,VALID,79.8288,VALID,19.0203,VALID,134,VALID,0,
2015-04-28, 07:41:04,VALID,917.985,VALID,0,VALID,98.9062,VALID,80.9032,VALID,19.0593,VALID,134,VALID,0,
2015-04-28, 07:42:04,VALID,917.999,VALID,0,VALID,98.9138,VALID,81.9776,VALID,19.0593,VALID,135,VALID,0,
2015-04-28, 07:43:04,VALID,918.016,VALID,0,VALID,98.9214,VALID,83.2669,VALID,19.0593,VALID,142,VALID,0,
2015-04-28, 07:44:04,VALID,917.998,VALID,0,VALID,98.9138,VALID,84.986,VALID,19.0983,VALID,142,VALID,0,
2015-04-28, 07:45:04,VALID,918,VALID,0,VALID,98.9138,VALID,87.0273,VALID,19.1373,VALID,142,VALID,0,
2015-04-28, 07:46:04,VALID,918.024,VALID,0,VALID,98.8986,VALID,88.9613,VALID,19.1373,VALID,142,VALID,0,
2015-04-28, 07:47:04,VALID,917.997,VALID,0,VALID,98.9214,VALID,90.6803,VALID,19.1568,VALID,138,VALID,0,
2015-04-28, 07:48:04,VALID,918.011,VALID,0,VALID,98.9367,VALID,93.044,VALID,19.1763,VALID,138,VALID,0,
2015-04-28, 07:49:04,VALID,917.974,VALID,0,VALID,98.9291,VALID,95.9449,VALID,19.1763,VALID,127,VALID,0,
2015-04-28, 07:50:04,VALID,917.996,VALID,0,VALID,98.9138,VALID,98.9533,VALID,19.2153,VALID,108,VALID,0,
2015-04-28, 07:51:04,VALID,918.009,VALID,0,VALID,98.9138,VALID,102.177,VALID,19.2543,VALID,108,VALID,0,
2015-04-28, 07:52:04,VALID,918.008,VALID,0,VALID,98.8681,VALID,105.937,VALID,19.3323,VALID,107,VALID,0,
2015-04-28, 07:53:04,VALID,918.052,VALID,0,VALID,98.8605,VALID,109.912,VALID,19.3713,VALID,108,VALID,0,
2015-04-28, 07:54:04,VALID,918.069,VALID,0,VALID,98.8833,VALID,113.673,VALID,19.3518,VALID,111,VALID,0,
2015-04-28, 07:55:04,VALID,918.109,VALID,0,VALID,98.8605,VALID,118.078,VALID,19.4103,VALID,112,VALID,0,
2015-04-28, 07:56:04,VALID,918.134,VALID,0,VALID,98.8376,VALID,123.45,VALID,19.4298,VALID,124,VALID,0,
2015-04-28, 07:57:04,VALID,918.139,VALID,0,VALID,98.8681,VALID,126.781,VALID,19.4493,VALID,131,VALID,0,
2015-04-28, 07:58:04,VALID,918.133,VALID,0,VALID,98.8605,VALID,132.582,VALID,19.5273,VALID,131,VALID,0,
2015-04-28, 07:59:04,VALID,918.148,VALID,0,VALID,98.891,VALID,137.095,VALID,19.4703,VALID,135,VALID,0,
2015-04-28, 08:00:04,VALID,918.144,VALID,0,VALID,98.8986,VALID,140.533,VALID,19.4478,VALID,132,VALID,0,
2015-04-28, 08:01:04,VALID,918.183,VALID,0,VALID,98.9214,VALID,144.723,VALID,19.4688,VALID,134,VALID,0,
2015-04-28, 08:02:04,VALID,918.176,VALID,0,VALID,98.9138,VALID,149.451,VALID,19.4868,VALID,134,VALID,0,
2015-04-28, 08:03:04,VALID,918.212,VALID,0,VALID,98.9062,VALID,154.285,VALID,19.5078,VALID,134,VALID,0,
2015-04-28, 08:04:04,VALID,918.245,VALID,0,VALID,98.9062,VALID,159.658,VALID,19.4883,VALID,132,VALID,0,
2015-04-28, 08:05:04,VALID,918.201,VALID,0,VALID,98.9367,VALID,164.6,VALID,19.4673,VALID,136,VALID,0,
2015-04-28, 08:06:04,VALID,918.2,VALID,0,VALID,98.9291,VALID,170.509,VALID,19.5453,VALID,131,VALID,0,
2015-04-28, 08:07:04,VALID,918.193,VALID,0,VALID,98.891,VALID,178.03,VALID,19.6233,VALID,122,VALID,0,
2015-04-28, 08:08:04,VALID,918.222,VALID,0,VALID,98.8528,VALID,186.518,VALID,19.6818,VALID,107,VALID,0,
2015-04-28, 08:09:04,VALID,918.2,VALID,0,VALID,98.8071,VALID,192.857,VALID,19.7988,VALID,106,VALID,0,
2015-04-28, 08:10:04,VALID,918.236,VALID,0,VALID,98.7537,VALID,201.022,VALID,19.9938,VALID,104,VALID,0,
2015-04-28, 08:11:04,VALID,918.236,VALID,0,VALID,98.7537,VALID,206.932,VALID,20.0328,VALID,98,VALID,0,
2015-04-28, 08:12:04,VALID,918.264,VALID,0,VALID,98.7614,VALID,214.453,VALID,20.0718,VALID,97,VALID,0,
2015-04-28, 08:13:04,VALID,918.293,VALID,0,VALID,98.7461,VALID,221.114,VALID,20.1888,VALID,123,VALID,0,
2015-04-28, 08:14:04,VALID,918.305,VALID,0,VALID,98.8071,VALID,227.56,VALID,20.1903,VALID,134,VALID,0,
2015-04-28, 08:15:04,VALID,918.308,VALID,0,VALID,98.83,VALID,232.395,VALID,20.2083,VALID,146,VALID,0,
2015-04-28, 08:16:04,VALID,918.342,VALID,0,VALID,98.8452,VALID,238.949,VALID,20.2879,VALID,142,VALID,0,
2015-04-28, 08:17:04,VALID,918.358,VALID,0,VALID,98.8833,VALID,245.933,VALID,20.3074,VALID,133,VALID,0,
2015-04-28, 08:18:04,VALID,918.355,VALID,0,VALID,98.891,VALID,251.95,VALID,20.3058,VALID,121,VALID,0,
2015-04-28, 08:19:04,VALID,918.4,VALID,0,VALID,98.8605,VALID,258.611,VALID,20.3854,VALID,119,VALID,0,
2015-04-28, 08:20:04,VALID,918.428,VALID,0,VALID,98.8376,VALID,264.305,VALID,20.4423,VALID,136,VALID,0,
2015-04-28, 08:21:04,VALID,918.446,VALID,0,VALID,98.7918,VALID,265.38,VALID,20.5999,VALID,136,VALID,0,
2015-04-28, 08:22:04,VALID,918.474,VALID,0,VALID,98.8681,VALID,270.644,VALID,20.5594,VALID,137,VALID,0.0316406,
2015-04-28, 08:23:04,VALID,918.481,VALID,0,VALID,98.7995,VALID,273.223,VALID,20.7154,VALID,146,VALID,0,
2015-04-28, 08:24:04,VALID,918.493,VALID,0,VALID,98.8528,VALID,278.487,VALID,20.756,VALID,142,VALID,1.19141,
2015-04-28, 08:25:04,VALID,918.542,VALID,0,VALID,98.8833,VALID,284.719,VALID,20.7739,VALID,153,VALID,1.08398,
2015-04-28, 08:26:04,VALID,918.542,VALID,0,VALID,98.891,VALID,290.736,VALID,20.8129,VALID,136,VALID,1.3793,
2015-04-28, 08:27:04,VALID,918.598,VALID,0,VALID,98.8833,VALID,300.405,VALID,20.7544,VALID,131,VALID,1.21602,
2015-04-28, 08:28:04,VALID,918.585,VALID,0,VALID,98.8452,VALID,307.604,VALID,20.7544,VALID,131,VALID,1.44102,
2015-04-28, 08:29:04,VALID,918.576,VALID,0,VALID,98.7614,VALID,310.183,VALID,20.8519,VALID,130,VALID,1.01523,
2015-04-28, 08:30:04,VALID,918.567,VALID,0,VALID,98.6622,VALID,289.124,VALID,20.93,VALID,147,VALID,0,
2015-04-28, 08:31:04,VALID,918.57,VALID,0,VALID,98.6013,VALID,293.637,VALID,21.047,VALID,170,VALID,0,
2015-04-28, 08:32:04,VALID,918.582,VALID,0,VALID,98.5784,VALID,313.513,VALID,21.047,VALID,159,VALID,0,
2015-04-28, 08:33:04,VALID,918.581,VALID,0,VALID,98.4335,VALID,300.62,VALID,21.0259,VALID,145,VALID,0,
2015-04-28, 08:34:04,VALID,918.592,VALID,0,VALID,98.2582,VALID,300.835,VALID,21.1445,VALID,127,VALID,0,
2015-04-28, 08:35:04,VALID,918.592,VALID,0,VALID,98.1362,VALID,304.381,VALID,21.3201,VALID,128,VALID,0,
2015-04-28, 08:36:04,VALID,918.599,VALID,0,VALID,97.9914,VALID,308.893,VALID,21.4567,VALID,177,VALID,0,
2015-04-28, 08:37:04,VALID,918.6,VALID,0,VALID,97.877,VALID,308.893,VALID,21.5916,VALID,122,VALID,0,
2015-04-28, 08:38:04,VALID,918.579,VALID,0,VALID,97.5569,VALID,289.769,VALID,21.6518,VALID,102,VALID,0,
2015-04-28, 08:39:04,VALID,918.63,VALID,0,VALID,96.5353,VALID,297.827,VALID,21.5916,VALID,102,VALID,0,
2015-04-28, 08:40:04,VALID,918.676,VALID,0,VALID,95.3461,VALID,271.611,VALID,21.5542,VALID,113,VALID,0,
2015-04-28, 08:41:04,VALID,918.677,VALID,0,VALID,94.7896,VALID,267.743,VALID,21.5542,VALID,120,VALID,0,
2015-04-28, 08:42:04,VALID,918.716,VALID,0,VALID,95.0183,VALID,305.563,VALID,21.6518,VALID,101,VALID,0,
2015-04-28, 08:43:04,VALID,918.691,VALID,0,VALID,94.7133,VALID,312.976,VALID,21.7103,VALID,112,VALID,0,
2015-04-28, 08:44:04,VALID,918.726,VALID,0,VALID,94.5075,VALID,313.836,VALID,21.7688,VALID,126,VALID,0,
2015-04-28, 08:45:04,VALID,918.709,VALID,0,VALID,93.7604,VALID,320.927,VALID,21.8274,VALID,118,VALID,0,
2015-04-28, 08:46:04,VALID,918.711,VALID,0,VALID,93.7451,VALID,327.588,VALID,21.8664,VALID,117,VALID,0,
2015-04-28, 08:47:04,VALID,918.698,VALID,0,VALID,93.0895,VALID,344.886,VALID,21.8859,VALID,104,VALID,0.571484,
2015-04-28, 08:48:04,VALID,918.687,VALID,0,VALID,93.8366,VALID,354.663,VALID,21.9818,VALID,107,VALID,0.569531,
2015-04-28, 08:49:04,VALID,918.685,VALID,0,VALID,92.1137,VALID,364.763,VALID,22.0013,VALID,115,VALID,1.02148,
2015-04-28, 08:50:04,VALID,918.677,VALID,0,VALID,92.6169,VALID,369.06,VALID,22.0403,VALID,103,VALID,0,
2015-04-28, 08:51:04,VALID,918.732,VALID,0,VALID,91.7859,VALID,376.796,VALID,22.0989,VALID,102,VALID,0,
2015-04-28, 08:52:04,VALID,918.725,VALID,0,VALID,91.7326,VALID,377.226,VALID,22.1379,VALID,92,VALID,0,
2015-04-28, 08:53:04,VALID,918.76,VALID,0,VALID,91.7554,VALID,379.912,VALID,22.1964,VALID,94,VALID,0,
2015-04-28, 08:54:04,VALID,918.775,VALID,0,VALID,91.4429,VALID,379.59,VALID,22.2338,VALID,82,VALID,0,
2015-04-28, 08:55:04,VALID,918.814,VALID,0,VALID,92.8532,VALID,382.491,VALID,22.3916,VALID,78,VALID,0,
2015-04-28, 08:56:04,VALID,918.823,VALID,0,VALID,91.0465,VALID,384.962,VALID,22.5281,VALID,74,VALID,0.0988281,
2015-04-28, 08:57:04,VALID,918.82,VALID,0,VALID,89.4227,VALID,391.623,VALID,22.6062,VALID,79,VALID,0,
2015-04-28, 08:58:04,VALID,918.778,VALID,0,VALID,90.3222,VALID,398.069,VALID,22.7428,VALID,64,VALID,0,
2015-04-28, 08:59:04,VALID,918.783,VALID,0,VALID,90.5967,VALID,397.962,VALID,22.8794,VALID,64,VALID,0,
2015-04-28, 09:00:04,VALID,918.786,VALID,0,VALID,89.1025,VALID,394.631,VALID,22.9948,VALID,51,VALID,0,
2015-04-28, 09:01:04,VALID,918.784,VALID,0,VALID,87.5626,VALID,397.64,VALID,23.0746,VALID,52,VALID,0,
2015-04-28, 09:02:04,VALID,918.803,VALID,0,VALID,87.3339,VALID,397.855,VALID,23.1314,VALID,109,VALID,0,
2015-04-28, 09:03:04,VALID,918.836,VALID,0,VALID,86.846,VALID,403.764,VALID,23.2094,VALID,119,VALID,0,
2015-04-28, 09:04:04,VALID,918.849,VALID,0,VALID,86.8231,VALID,406.772,VALID,23.2698,VALID,111,VALID,0,
2015-04-28, 09:05:04,VALID,918.853,VALID,0,VALID,85.7101,VALID,407.417,VALID,23.229,VALID,63,VALID,0,
2015-04-28, 09:06:04,VALID,918.866,VALID,0,VALID,86.9222,VALID,424.07,VALID,23.3461,VALID,63,VALID,0,
2015-04-28, 09:07:04,VALID,918.864,VALID,0,VALID,86.8841,VALID,449.641,VALID,23.4827,VALID,64,VALID,0,
2015-04-28, 09:08:04,VALID,918.846,VALID,0,VALID,83.9872,VALID,455.98,VALID,23.5412,VALID,78,VALID,0,
2015-04-28, 09:09:04,VALID,918.838,VALID,0,VALID,82.1957,VALID,469.733,VALID,23.5608,VALID,52,VALID,0,
2015-04-28, 09:10:04,VALID,918.794,VALID,0,VALID,82.9199,VALID,470.162,VALID,23.504,VALID,61,VALID,0,
2015-04-28, 09:11:04,VALID,918.82,VALID,0,VALID,84.2921,VALID,454.261,VALID,23.5608,VALID,61,VALID,0,
2015-04-28, 09:12:04,VALID,918.79,VALID,0,VALID,83.6517,VALID,455.765,VALID,23.6388,VALID,61,VALID,0,
2015-04-28, 09:13:04,VALID,918.764,VALID,0,VALID,82.9504,VALID,464.038,VALID,23.6992,VALID,61,VALID,0,
2015-04-28, 09:14:04,VALID,918.746,VALID,0,VALID,83.9643,VALID,479.08,VALID,23.7578,VALID,61,VALID,0,
2015-04-28, 09:15:04,VALID,918.714,VALID,0,VALID,83.202,VALID,480.047,VALID,23.8536,VALID,61,VALID,0,
2015-04-28, 09:16:04,VALID,918.694,VALID,0,VALID,82.9275,VALID,474.675,VALID,23.9902,VALID,61,VALID,0,
2015-04-28, 09:17:04,VALID,918.719,VALID,0,VALID,81.7611,VALID,490.254,VALID,24.1073,VALID,61,VALID,0,
2015-04-28, 09:18:04,VALID,918.709,VALID,0,VALID,81.4105,VALID,492.94,VALID,24.244,VALID,53,VALID,0,
2015-04-28, 09:19:04,VALID,918.725,VALID,0,VALID,79.4589,VALID,492.618,VALID,24.244,VALID,4,VALID,0,
2015-04-28, 09:20:04,VALID,918.762,VALID,0,VALID,80.9607,VALID,481.766,VALID,24.1659,VALID,14,VALID,0,
2015-04-28, 09:21:04,VALID,918.762,VALID,0,VALID,79.8095,VALID,488.427,VALID,24.0878,VALID,343,VALID,0,
2015-04-28, 09:22:04,VALID,918.76,VALID,0,VALID,82.432,VALID,514.106,VALID,23.9902,VALID,343,VALID,0,
2015-04-28, 09:23:04,VALID,918.75,VALID,0,VALID,80.8844,VALID,401.4,VALID,23.9298,VALID,315,VALID,0,
2015-04-28, 09:24:04,VALID,918.736,VALID,0,VALID,81.2809,VALID,484.774,VALID,23.834,VALID,285,VALID,0,
2015-04-28, 09:25:04,VALID,918.736,VALID,0,VALID,80.5338,VALID,483.7,VALID,23.6388,VALID,253,VALID,1.22773,
2015-04-28, 09:26:04,VALID,918.769,VALID,0,VALID,82.6302,VALID,506.478,VALID,23.5022,VALID,253,VALID,0,
2015-04-28, 09:27:04,VALID,918.753,VALID,0,VALID,82.9199,VALID,503.362,VALID,23.5608,VALID,253,VALID,0,
2015-04-28, 09:28:04,VALID,918.733,VALID,0,VALID,80.4575,VALID,551.066,VALID,23.6388,VALID,257,VALID,0,
2015-04-28, 09:29:04,VALID,918.724,VALID,0,VALID,79.4436,VALID,513.891,VALID,23.6974,VALID,260,VALID,0,
2015-04-28, 09:30:04,VALID,918.749,VALID,0,VALID,81.3647,VALID,534.842,VALID,23.756,VALID,260,VALID,0,
2015-04-28, 09:31:04,VALID,918.711,VALID,0,VALID,82.4854,VALID,497.238,VALID,23.9121,VALID,259,VALID,0,
2015-04-28, 09:32:04,VALID,918.731,VALID,0,VALID,79.1082,VALID,487.783,VALID,24.1659,VALID,347,VALID,0,
2015-04-28, 09:33:04,VALID,918.773,VALID,0,VALID,79.8934,VALID,512.817,VALID,24.3593,VALID,349,VALID,0,
2015-04-28, 09:34:04,VALID,918.746,VALID,0,VALID,80.0078,VALID,501.643,VALID,24.5954,VALID,349,VALID,0,
2015-04-28, 09:35:04,VALID,918.805,VALID,0,VALID,77.1947,VALID,501.213,VALID,24.7321,VALID,265,VALID,0,
2015-04-28, 09:36:04,VALID,918.801,VALID,0,VALID,79.7181,VALID,518.081,VALID,24.7711,VALID,266,VALID,0,
2015-04-28, 09:37:04,VALID,918.764,VALID,0,VALID,77.3243,VALID,558.049,VALID,24.6735,VALID,266,VALID,0,
2015-04-28, 09:38:04,VALID,918.819,VALID,0,VALID,79.0167,VALID,570.513,VALID,24.6521,VALID,279,VALID,0,
2015-04-28, 09:39:04,VALID,918.779,VALID,0,VALID,77.1413,VALID,572.769,VALID,24.7321,VALID,274,VALID,0,
2015-04-28, 09:40:04,VALID,918.801,VALID,0,VALID,75.609,VALID,444.377,VALID,24.6912,VALID,315,VALID,0,
2015-04-28, 09:41:04,VALID,918.796,VALID,0,VALID,76.1198,VALID,573.628,VALID,24.6345,VALID,305,VALID,0,
2015-04-28, 09:42:04,VALID,918.801,VALID,0,VALID,75.144,VALID,528.503,VALID,24.535,VALID,325,VALID,0,
2015-04-28, 09:43:04,VALID,918.806,VALID,0,VALID,75.2507,VALID,584.48,VALID,24.5935,VALID,350,VALID,0,
2015-04-28, 09:44:04,VALID,918.82,VALID,0,VALID,75.3651,VALID,598.77,VALID,24.7107,VALID,334,VALID,0,
2015-04-28, 09:45:04,VALID,918.794,VALID,0,VALID,75.9978,VALID,606.505,VALID,24.8474,VALID,16,VALID,0,
2015-04-28, 09:46:04,VALID,918.791,VALID,0,VALID,76.1884,VALID,600.596,VALID,25.0426,VALID,18,VALID,0,
2015-04-28, 09:47:04,VALID,918.817,VALID,0,VALID,71.2789,VALID,587.918,VALID,25.1793,VALID,304,VALID,0.1375,
2015-04-28, 09:48:04,VALID,918.765,VALID,0,VALID,74.3131,VALID,415.153,VALID,25.0036,VALID,338,VALID,0,
2015-04-28, 09:49:04,VALID,918.789,VALID,0,VALID,73.2763,VALID,527.751,VALID,24.7869,VALID,304,VALID,0,
2015-04-28, 09:50:04,VALID,918.774,VALID,0,VALID,73.4592,VALID,373.036,VALID,24.6326,VALID,306,VALID,0,
2015-04-28, 09:51:04,VALID,918.773,VALID,0,VALID,73.1924,VALID,478.328,VALID,24.574,VALID,306,VALID,0,
2015-04-28, 09:52:04,VALID,918.755,VALID,0,VALID,73.9471,VALID,395.598,VALID,24.5155,VALID,306,VALID,0,
2015-04-28, 09:53:04,VALID,918.767,VALID,0,VALID,74.9153,VALID,314.48,VALID,24.3983,VALID,292,VALID,0,
2015-04-28, 09:54:04,VALID,918.749,VALID,0,VALID,75.7005,VALID,321.464,VALID,24.2226,VALID,285,VALID,0,
2015-04-28, 09:55:04,VALID,918.733,VALID,0,VALID,77.2786,VALID,397.962,VALID,24.2208,VALID,285,VALID,0,
2015-04-28, 09:56:04,VALID,918.704,VALID,0,VALID,76.9508,VALID,417.946,VALID,24.3593,VALID,2,VALID,0,
2015-04-28, 09:57:04,VALID,918.714,VALID,0,VALID,76.6763,VALID,475.535,VALID,24.5155,VALID,348,VALID,0,
2015-04-28, 09:58:04,VALID,918.704,VALID,0,VALID,76.4476,VALID,492.833,VALID,24.4941,VALID,302,VALID,0,
2015-04-28, 09:59:04,VALID,918.702,VALID,0,VALID,75.8682,VALID,523.561,VALID,24.4569,VALID,297,VALID,0,
2015-04-28, 10:00:04,VALID,918.696,VALID,0,VALID,76.9584,VALID,545.264,VALID,24.4764,VALID,301,VALID,0,
2015-04-28, 10:01:04,VALID,918.649,VALID,0,VALID,76.9584,VALID,571.802,VALID,24.574,VALID,311,VALID,0,
2015-04-28, 10:02:04,VALID,918.678,VALID,0,VALID,75.7768,VALID,598.984,VALID,24.7888,VALID,301,VALID,0,
2015-04-28, 10:03:04,VALID,918.663,VALID,0,VALID,74.8543,VALID,604.894,VALID,25.0231,VALID,318,VALID,0,
2015-04-28, 10:04:04,VALID,918.674,VALID,0,VALID,71.7211,VALID,606.613,VALID,25.1793,VALID,324,VALID,0,
2015-04-28, 10:05:04,VALID,918.653,VALID,0,VALID,72.5063,VALID,606.398,VALID,24.8864,VALID,304,VALID,0.290625,
2015-04-28, 10:06:04,VALID,918.635,VALID,0,VALID,73.6574,VALID,599.951,VALID,24.6912,VALID,298,VALID,0,
2015-04-28, 10:07:04,VALID,918.636,VALID,0,VALID,74.557,VALID,611.448,VALID,24.4178,VALID,300,VALID,0,
2015-04-28, 10:08:04,VALID,918.633,VALID,0,VALID,76.5238,VALID,624.878,VALID,24.2812,VALID,289,VALID,0,
2015-04-28, 10:09:04,VALID,918.646,VALID,0,VALID,75.9521,VALID,660.333,VALID,24.3202,VALID,324,VALID,0,
2015-04-28, 10:10:04,VALID,918.67,VALID,0,VALID,76.4552,VALID,650.019,VALID,24.4374,VALID,330,VALID,0,
2015-04-28, 10:11:04,VALID,918.66,VALID,0,VALID,74.4503,VALID,725.658,VALID,24.4764,VALID,321,VALID,0,
2015-04-28, 10:12:04,VALID,918.654,VALID,0,VALID,74.9077,VALID,387.648,VALID,24.4355,VALID,321,VALID,0,
2015-04-28, 10:13:04,VALID,918.616,VALID,0,VALID,75.2431,VALID,732.749,VALID,24.6131,VALID,267,VALID,0,
2015-04-28, 10:14:04,VALID,918.642,VALID,0,VALID,72.4377,VALID,721.79,VALID,24.8669,VALID,356,VALID,0,
2015-04-28, 10:15:04,VALID,918.62,VALID,0,VALID,73.444,VALID,708.467,VALID,25.0036,VALID,36,VALID,0,
2015-04-28, 10:16:04,VALID,918.629,VALID,0,VALID,73.5736,VALID,713.732,VALID,25.1402,VALID,26,VALID,0,
2015-04-28, 10:17:04,VALID,918.647,VALID,0,VALID,73.8404,VALID,745.104,VALID,25.4527,VALID,15,VALID,0,
2015-04-28, 10:18:04,VALID,918.625,VALID,0,VALID,70.9664,VALID,762.08,VALID,25.5894,VALID,302,VALID,0,
2015-04-28, 10:19:04,VALID,918.644,VALID,0,VALID,71.5458,VALID,731.567,VALID,25.316,VALID,282,VALID,0,
2015-04-28, 10:20:04,VALID,918.637,VALID,0,VALID,73.8557,VALID,635.3,VALID,25.1207,VALID,304,VALID,0,
2015-04-28, 10:21:04,VALID,918.59,VALID,0,VALID,73.3068,VALID,766.055,VALID,24.8864,VALID,278,VALID,0,
2015-04-28, 10:22:04,VALID,918.594,VALID,0,VALID,75.1821,VALID,385.606,VALID,24.7497,VALID,309,VALID,0.0945313,
2015-04-28, 10:23:04,VALID,918.582,VALID,0,VALID,74.7019,VALID,668.499,VALID,24.8259,VALID,299,VALID,0,
2015-04-28, 10:24:04,VALID,918.566,VALID,0,VALID,73.9319,VALID,592.323,VALID,24.8259,VALID,277,VALID,0,
2015-04-28, 10:25:04,VALID,918.58,VALID,0,VALID,74.7857,VALID,719.104,VALID,24.984,VALID,276,VALID,0,
2015-04-28, 10:26:04,VALID,918.588,VALID,0,VALID,74.6409,VALID,711.26,VALID,25.1988,VALID,278,VALID,0,
2015-04-28, 10:27:04,VALID,918.608,VALID,0,VALID,74.1072,VALID,730.815,VALID,25.5698,VALID,332,VALID,0,
2015-04-28, 10:28:04,VALID,918.576,VALID,0,VALID,70.4099,VALID,710.079,VALID,25.8823,VALID,316,VALID,0,
2015-04-28, 10:29:04,VALID,918.565,VALID,0,VALID,71.2637,VALID,650.449,VALID,26.0757,VALID,21,VALID,0,
2015-04-28, 10:30:04,VALID,918.58,VALID,0,VALID,70.387,VALID,304.811,VALID,26.3686,VALID,13,VALID,0,
2015-04-28, 10:31:04,VALID,918.574,VALID,0,VALID,70.6614,VALID,675.697,VALID,26.2319,VALID,269,VALID,0,
2015-04-28, 10:32:04,VALID,918.526,VALID,0,VALID,68.9995,VALID,674.623,VALID,26.1342,VALID,289,VALID,0,
2015-04-28, 10:33:04,VALID,918.529,VALID,0,VALID,69.922,VALID,676.127,VALID,26.0366,VALID,355,VALID,0.212891,
2015-04-28, 10:34:04,VALID,918.516,VALID,0,VALID,69.8762,VALID,654.209,VALID,26.0386,VALID,3,VALID,0,
2015-04-28, 10:35:04,VALID,918.515,VALID,0,VALID,70.5318,VALID,640.349,VALID,26.0952,VALID,3,VALID,0,
2015-04-28, 10:36:04,VALID,918.502,VALID,0,VALID,68.3744,VALID,626.06,VALID,26.2124,VALID,3,VALID,0,
2015-04-28, 10:37:04,VALID,918.508,VALID,0,VALID,69.0986,VALID,631.432,VALID,26.1928,VALID,43,VALID,0,
2015-04-28, 10:38:04,VALID,918.523,VALID,0,VALID,68.6107,VALID,378.515,VALID,26.2124,VALID,49,VALID,0,
2015-04-28, 10:39:04,VALID,918.531,VALID,0,VALID,69.5789,VALID,614.886,VALID,26.2299,VALID,48,VALID,0,
2015-04-28, 10:40:04,VALID,918.528,VALID,0,VALID,68.9995,VALID,599.737,VALID,26.3296,VALID,267,VALID,0,
2015-04-28, 10:41:04,VALID,918.529,VALID,0,VALID,69.0834,VALID,605.109,VALID,26.2905,VALID,275,VALID,0,
2015-04-28, 10:42:04,VALID,918.476,VALID,0,VALID,69.3578,VALID,631.002,VALID,26.1538,VALID,286,VALID,0.03125,
2015-04-28, 10:43:04,VALID,918.487,VALID,0,VALID,70.2727,VALID,653.565,VALID,25.8804,VALID,288,VALID,0,
2015-04-28, 10:44:04,VALID,918.43,VALID,0,VALID,71.8202,VALID,398.284,VALID,25.7046,VALID,227,VALID,0,
2015-04-28, 10:45:04,VALID,918.438,VALID,0,VALID,74.0844,VALID,650.664,VALID,25.7827,VALID,15,VALID,0.126172,
2015-04-28, 10:46:04,VALID,918.473,VALID,0,VALID,72.7884,VALID,518.833,VALID,25.8804,VALID,1,VALID,0,
2015-04-28, 10:47:04,VALID,918.449,VALID,0,VALID,75.144,VALID,666.672,VALID,25.8218,VALID,11,VALID,0,
2015-04-28, 10:48:04,VALID,918.42,VALID,0,VALID,73.3449,VALID,680.747,VALID,25.9389,VALID,4,VALID,0,
2015-04-28, 10:49:04,VALID,918.46,VALID,0,VALID,70.7301,VALID,706.855,VALID,25.8999,VALID,308,VALID,0,
2015-04-28, 10:50:04,VALID,918.444,VALID,0,VALID,69.4569,VALID,549.776,VALID,26.0171,VALID,305,VALID,0,
2015-04-28, 10:51:04,VALID,918.459,VALID,0,VALID,71.1417,VALID,713.839,VALID,25.9389,VALID,313,VALID,0,
2015-04-28, 10:52:04,VALID,918.438,VALID,0,VALID,71.4771,VALID,715.88,VALID,26.0346,VALID,354,VALID,0,
2015-04-28, 10:53:04,VALID,918.467,VALID,0,VALID,71.5229,VALID,712.55,VALID,25.8999,VALID,300,VALID,0.119922,
2015-04-28, 10:54:04,VALID,918.458,VALID,0,VALID,71.2332,VALID,695.574,VALID,25.8608,VALID,8,VALID,0,
2015-04-28, 10:55:04,VALID,918.467,VALID,0,VALID,72.1785,VALID,701.376,VALID,26.1538,VALID,5,VALID,0.169141,
2015-04-28, 10:56:04,VALID,918.48,VALID,0,VALID,70.4099,VALID,711.69,VALID,26.1908,VALID,348,VALID,0,
2015-04-28, 10:57:04,VALID,918.473,VALID,0,VALID,72.4377,VALID,724.261,VALID,26.2905,VALID,18,VALID,0,
2015-04-28, 10:58:04,VALID,918.446,VALID,0,VALID,70.7072,VALID,375.185,VALID,26.564,VALID,18,VALID,0,
2015-04-28, 10:59:04,VALID,918.413,VALID,0,VALID,70.3108,VALID,344.564,VALID,26.5249,VALID,316,VALID,0,
2015-04-28, 11:00:04,VALID,918.408,VALID,0,VALID,68.0771,VALID,727.377,VALID,26.4468,VALID,278,VALID,0,
2015-04-28, 11:01:04,VALID,918.4,VALID,0,VALID,68.7937,VALID,741.022,VALID,26.3862,VALID,25,VALID,0,
2015-04-28, 11:02:04,VALID,918.463,VALID,0,VALID,68.3134,VALID,743.815,VALID,26.4057,VALID,310,VALID,0,
2015-04-28, 11:03:04,VALID,918.428,VALID,0,VALID,69.7619,VALID,747.038,VALID,26.3471,VALID,306,VALID,0,
2015-04-28, 11:04:04,VALID,918.458,VALID,0,VALID,71.035,VALID,275.694,VALID,26.4663,VALID,345,VALID,0,
2015-04-28, 11:05:04,VALID,918.472,VALID,0,VALID,69.335,VALID,257.644,VALID,26.3882,VALID,351,VALID,0,
2015-04-28, 11:06:04,VALID,918.486,VALID,0,VALID,69.9372,VALID,251.197,VALID,26.1733,VALID,335,VALID,0,
2015-04-28, 11:07:04,VALID,918.526,VALID,0,VALID,68.1838,VALID,246.9,VALID,26.0757,VALID,293,VALID,0.322656,
2015-04-28, 11:08:04,VALID,918.514,VALID,0,VALID,70.8596,VALID,268.818,VALID,25.7827,VALID,289,VALID,0,
2015-04-28, 11:09:04,VALID,918.513,VALID,0,VALID,71.0655,VALID,654.424,VALID,25.6636,VALID,284,VALID,0,
2015-04-28, 11:10:04,VALID,918.514,VALID,0,VALID,73.7108,VALID,740.699,VALID,25.7417,VALID,278,VALID,0,
2015-04-28, 11:11:04,VALID,918.493,VALID,0,VALID,72.6512,VALID,747.253,VALID,25.8979,VALID,277,VALID,0,
2015-04-28, 11:12:04,VALID,918.486,VALID,0,VALID,72.6435,VALID,273.545,VALID,26.1538,VALID,277,VALID,0,
2015-04-28, 11:13:04,VALID,918.465,VALID,0,VALID,70.6996,VALID,239.486,VALID,26.1928,VALID,320,VALID,0,
2015-04-28, 11:14:04,VALID,918.449,VALID,0,VALID,70.8444,VALID,260.545,VALID,26.1928,VALID,283,VALID,0,
2015-04-28, 11:15:04,VALID,918.445,VALID,0,VALID,70.8596,VALID,322.861,VALID,26.2514,VALID,338,VALID,0,